CW0069 Weather Reports


Display with metric or nautical units.
time (UTC)temp
F
wind
direction
speed
MPH
gust
MPH
rain 1hr
in
rain 24hr
in
rain mn
in
humidity
%
barometer
mb
20260904082404 88 13 2.0 3.0 0.00 0.00 0.00 48 1011.0
20260904081904 88 0 2.0 3.0 0.00 0.00 0.00 48 1010.9
20260904081404 88 11 1.0 3.0 0.00 0.00 0.00 48 1010.9
20260904080905 88 1 1.0 3.0 0.00 0.00 0.00 48 1011.1
20260904080405 88 37 2.0 3.0 0.00 0.00 0.00 48 1011.1
20260904075404 88 0 1.0 3.0 0.00 0.00 0.00 48 1010.9
20260904074904 88 6 1.0 3.0 0.00 0.00 0.00 48 1011.0
20260904074404 88 13 2.0 3.0 0.00 0.00 0.00 48 1010.9
20260904073904 88 0 1.0 3.0 0.00 0.00 0.00 48 1010.9
20260904073404 88 0 1.0 3.0 0.00 0.00 0.00 48 1010.8
20260904071904 88 109 2.0 6.0 0.00 0.00 0.00 48 1010.9
20260904071405 88 96 2.0 6.0 0.00 0.00 0.00 48 1010.9
20260904070904 88 33 2.0 6.0 0.00 0.00 0.00 48 1010.9
20260904070404 88 109 2.0 6.0 0.00 0.00 0.00 48 1010.9
20260904065405 88 8 2.0 3.0 0.00 0.00 0.00 48 1011.2
20260904064904 88 111 2.0 5.0 0.00 0.00 0.00 48 1011.1
20260904064404 88 38 2.0 5.0 0.00 0.00 0.00 48 1011.1
20260904063905 88 106 2.0 6.0 0.00 0.00 0.00 48 1011.1
20260904062904 88 123 1.0 3.0 0.00 0.00 0.00 48 1011.1
20260904062404 88 124 1.0 3.0 0.00 0.00 0.00 48 1011.1
20260904061904 88 126 1.0 3.0 0.00 0.00 0.00 48 1011.2
20260904061404 88 126 2.0 6.0 0.00 0.00 0.00 48 1011.1
20260904060905 88 119 2.0 5.0 0.00 0.00 0.00 48 1011.1
20260904060404 88 104 2.0 7.0 0.00 0.00 0.00 48 1011.1
20260904055405 88 112 4.0 7.0 0.00 0.00 0.00 48 1011.1
20260904054904 88 111 5.0 8.0 0.00 0.00 0.00 48 1011.1
20260904053905 88 116 5.0 9.0 0.00 0.00 0.00 48 1010.9
20260904053405 88 109 5.0 8.0 0.00 0.00 0.00 48 1011.0
20260904052904 88 116 4.0 7.0 0.00 0.00 0.00 48 1011.1
20260904052405 88 122 2.0 9.0 0.00 0.00 0.00 48 1011.0
20260904051905 88 115 4.0 8.0 0.00 0.00 0.00 48 1010.9
20260904051405 88 107 3.0 7.0 0.00 0.00 0.00 48 1011.1
20260904050904 88 112 3.0 7.0 0.00 0.00 0.00 48 1011.1
20260904050404 88 115 4.0 7.0 0.00 0.00 0.00 48 1011.1
20260904045905 88 107 3.0 8.0 0.00 0.00 0.00 48 1011.0
20260904045405 88 117 2.0 7.0 0.00 0.00 0.00 48 1010.9
20260904044904 88 105 3.0 8.0 0.00 0.00 0.00 48 1011.1
20260904044405 88 115 2.0 7.0 0.00 0.00 0.00 48 1011.1
20260904043904 88 117 3.0 8.0 0.00 0.00 0.00 48 1011.1
20260904043405 88 117 3.0 6.0 0.00 0.00 0.00 48 1011.1
20260904042905 88 119 4.0 8.0 0.00 0.00 0.00 48 1011.1
20260904042404 88 103 3.0 8.0 0.00 0.00 0.00 48 1011.2
20260904041905 88 120 4.0 8.0 0.00 0.00 0.00 48 1011.3
20260904041404 88 121 3.0 7.0 0.00 0.00 0.00 48 1011.3
20260904040404 88 111 4.0 8.0 0.00 0.00 0.00 48 1011.3
20260904034905 88 113 1.0 3.0 0.00 0.00 0.00 48 1011.2
20260904034404 88 116 2.0 6.0 0.00 0.00 0.00 48 1011.2
20260904033905 88 118 2.0 6.0 0.00 0.00 0.00 48 1011.2
20260904032905 88 109 2.0 6.0 0.00 0.00 0.00 48 1011.2
20260904032405 88 107 4.0 8.0 0.00 0.00 0.00 48 1011.3
20260904031404 88 117 2.0 7.0 0.00 0.00 0.00 48 1011.1
20260904030906 88 117 3.0 8.0 0.00 0.00 0.00 48 1011.2
20260904030405 88 108 3.0 8.0 0.00 0.00 0.00 48 1011.2
20260904025905 88 107 4.0 7.0 0.00 0.00 0.00 48 1011.2
20260904025405 88 120 3.0 9.0 0.00 0.00 0.00 48 1011.0
20260904024904 88 112 6.0 9.0 0.00 0.00 0.00 48 1010.9
20260904024404 88 121 4.0 9.0 0.00 0.00 0.00 48 1010.9
20260904023905 88 115 3.0 9.0 0.00 0.00 0.00 48 1010.8
20260904023405 88 121 2.0 7.0 0.00 0.00 0.00 48 1010.8
20260904022905 88 122 3.0 8.0 0.00 0.00 0.00 48 1010.7
20260904022405 88 111 6.0 9.0 0.00 0.00 0.00 48 1010.5
20260904021906 88 114 5.0 9.0 0.00 0.00 0.00 48 1010.5
20260904021405 88 120 4.0 8.0 0.00 0.00 0.00 48 1010.4
20260904020904 88 128 3.0 8.0 0.00 0.00 0.00 48 1010.3
20260904020405 88 118 2.0 7.0 0.00 0.00 0.00 48 1010.3
20260904015904 88 126 3.0 8.0 0.00 0.00 0.00 48 1010.3
20260904015405 88 116 5.0 12.0 0.00 0.00 0.00 48 1010.2
20260904014404 88 117 3.0 10.0 0.00 0.00 0.00 48 1010.0
20260904013405 88 118 5.0 10.0 0.00 0.00 0.00 48 1009.9
20260904012905 88 115 6.0 10.0 0.00 0.00 0.00 48 1009.8
20260904011904 88 114 6.0 12.0 0.00 0.00 0.00 48 1009.7
20260904011405 88 111 5.0 9.0 0.00 0.00 0.00 48 1009.6
20260904010904 88 118 7.0 12.0 0.00 0.00 0.00 48 1009.7
20260904010404 88 115 6.0 12.0 0.00 0.00 0.00 48 1009.6
20260904005405 88 123 6.0 12.0 0.00 0.00 0.00 48 1009.6
20260904004904 88 118 7.0 12.0 0.00 0.00 0.00 48 1009.6
20260904003405 88 117 8.0 12.0 0.00 0.00 0.00 48 1009.5
20260904002904 88 116 6.0 10.0 0.00 0.00 0.00 48 1009.5
20260904002404 88 105 5.0 9.0 0.00 0.00 0.00 48 1009.5
20260904001905 88 122 5.0 9.0 0.00 0.00 0.00 48 1009.5
20260904001405 88 97 6.0 10.0 0.00 0.00 0.00 48 1009.5
20260904000405 88 106 4.0 12.0 0.00 0.00 0.00 48 1009.3
20260903235905 88 117 8.0 12.0 0.00 0.00 0.00 48 1009.4
20260903235404 88 106 7.0 13.0 0.00 0.00 0.00 48 1009.3
20260903234905 88 107 5.0 10.0 0.00 0.00 0.00 48 1009.3
20260903234404 88 90 7.0 13.0 0.00 0.00 0.00 48 1009.4
20260903233405 89 121 9.0 13.0 0.00 0.00 0.00 47 1009.2
20260903232904 89 103 7.0 14.0 0.00 0.00 0.00 47 1009.1
20260903232405 89 117 8.0 16.0 0.00 0.00 0.00 46 1009.2
20260903231904 89 102 8.0 12.0 0.00 0.00 0.00 47 1009.1
20260903231404 89 91 5.0 12.0 0.00 0.00 0.00 47 1009.2
20260903230904 90 106 6.0 15.0 0.00 0.00 0.00 47 1009.2
20260903230404 90 115 6.0 12.0 0.00 0.00 0.00 47 1009.1
20260903225405 90 90 7.0 13.0 0.00 0.00 0.00 47 1009.1
20260903223904 91 86 5.0 12.0 0.00 0.00 0.00 47 1009.0
20260903223404 91 100 6.0 12.0 0.00 0.00 0.00 47 1009.0
20260903222904 91 118 6.0 15.0 0.00 0.00 0.00 46 1009.1
20260903222404 92 104 8.0 12.0 0.00 0.00 0.00 47 1009.1
20260903221904 92 80 6.0 10.0 0.00 0.00 0.00 46 1009.1
20260903221405 92 82 4.0 12.0 0.00 0.00 0.00 47 1009.1
20260903220906 92 120 8.0 12.0 0.00 0.00 0.00 46 1009.1
20260903215904 92 105 6.0 13.0 0.00 0.00 0.00 47 1009.1
20260903215404 92 89 7.0 14.0 0.00 0.00 0.00 46 1009.2
20260903214904 92 63 3.0 9.0 0.00 0.00 0.00 46 1009.2
20260903214404 92 107 7.0 12.0 0.00 0.00 0.00 47 1009.3
20260903213905 92 92 6.0 13.0 0.00 0.00 0.00 47 1009.3
20260903212405 91 122 3.0 8.0 0.00 0.00 0.00 47 1009.5
20260903211404 91 134 7.0 10.0 0.00 0.00 0.00 47 1009.5
20260903210904 91 108 6.0 13.0 0.00 0.00 0.00 46 1009.5
20260903210405 91 112 6.0 10.0 0.00 0.00 0.00 46 1009.6
20260903205904 92 110 7.0 12.0 0.00 0.00 0.00 45 1009.6
20260903204904 92 139 6.0 12.0 0.00 0.00 0.00 44 1009.7
20260903204404 92 139 5.0 14.0 0.00 0.00 0.00 45 1009.8
20260903203904 92 104 7.0 14.0 0.00 0.00 0.00 46 1009.8
20260903203404 92 84 7.0 13.0 0.00 0.00 0.00 46 1009.8
20260903202906 92 85 7.0 13.0 0.00 0.00 0.00 46 1009.9
20260903202404 92 128 7.0 12.0 0.00 0.00 0.00 47 1010.0
20260903201905 91 113 10.0 14.0 0.00 0.00 0.00 47 1010.2
20260903201404 91 102 6.0 12.0 0.00 0.00 0.00 46 1010.2
20260903200904 91 86 6.0 14.0 0.00 0.00 0.00 48 1010.2
20260903200405 91 117 7.0 12.0 0.00 0.00 0.00 48 1010.2
20260903195905 91 107 8.0 14.0 0.00 0.00 0.00 48 1010.2
20260903195405 91 137 9.0 16.0 0.00 0.00 0.00 47 1010.2
20260903193904 91 139 12.0 18.0 0.00 0.00 0.00 48 1010.2
20260903193405 91 122 7.0 14.0 0.00 0.00 0.00 48 1010.3
20260903192904 91 133 10.0 15.0 0.00 0.00 0.00 48 1010.4
20260903192405 90 106 11.0 15.0 0.00 0.00 0.00 49 1010.5
20260903190905 89 121 11.0 17.0 0.00 0.00 0.00 50 1010.9
20260903190404 89 111 12.0 18.0 0.00 0.00 0.00 51 1011.0
20260903185904 88 117 10.0 16.0 0.00 0.00 0.00 53 1011.0
20260903185405 87 127 13.0 20.0 0.00 0.00 0.00 54 1011.1
20260903184905 87 135 7.0 14.0 0.00 0.00 0.00 53 1011.1
20260903184405 87 139 11.0 20.0 0.00 0.00 0.00 53 1011.2
20260903183904 86 137 12.0 20.0 0.00 0.00 0.00 54 1011.2
20260903183404 86 129 13.0 22.0 0.00 0.00 0.00 55 1011.2
20260903182904 86 113 13.0 20.0 0.00 0.00 0.00 55 1011.2
20260903181904 85 130 12.0 20.0 0.00 0.00 0.00 57 1011.3
20260903181404 84 142 10.0 20.0 0.00 0.00 0.00 58 1011.4
20260903180905 84 125 10.0 17.0 0.00 0.00 0.00 58 1011.4
20260903180405 83 124 10.0 21.0 0.00 0.00 0.00 58 1011.5
20260903175906 83 126 11.0 18.0 0.00 0.00 0.00 58 1011.5
20260903175405 83 134 10.0 17.0 0.00 0.00 0.00 59 1011.6
20260903174905 83 115 12.0 18.0 0.00 0.00 0.00 59 1011.7
20260903174404 82 114 7.0 14.0 0.00 0.00 0.00 59 1011.8
20260903173404 82 126 11.0 16.0 0.00 0.00 0.00 59 1011.9
20260903172904 82 120 9.0 20.0 0.00 0.00 0.00 60 1012.0
20260903171905 82 120 12.0 18.0 0.00 0.00 0.00 59 1012.1
20260903171405 82 119 10.0 20.0 0.00 0.00 0.00 60 1012.1
20260903170904 82 121 13.0 21.0 0.00 0.00 0.00 60 1012.1
20260903165904 82 121 11.0 18.0 0.00 0.00 0.00 61 1012.1
20260903165405 82 117 12.0 18.0 0.00 0.00 0.00 62 1012.0
20260903164904 81 118 10.0 20.0 0.00 0.00 0.00 63 1012.0
20260903164407 81 124 9.0 14.0 0.00 0.00 0.00 63 1012.0
20260903163904 81 105 10.0 18.0 0.00 0.00 0.00 64 1012.0
20260903163404 81 114 9.0 14.0 0.00 0.00 0.00 63 1011.9
20260903162904 81 114 7.0 15.0 0.00 0.00 0.00 64 1011.9
20260903162404 81 126 10.0 16.0 0.00 0.00 0.00 64 1011.9
20260903161904 81 106 7.0 15.0 0.00 0.00 0.00 64 1011.9
20260903161405 81 113 9.0 16.0 0.00 0.00 0.00 64 1011.8
20260903160905 80 104 9.0 14.0 0.00 0.00 0.00 65 1011.7
20260903160404 80 114 9.0 14.0 0.00 0.00 0.00 65 1011.7
20260903155904 80 113 7.0 13.0 0.00 0.00 0.00 65 1011.7
20260903155404 80 122 12.0 16.0 0.00 0.00 0.00 66 1011.7
20260903154904 80 101 9.0 17.0 0.00 0.00 0.00 66 1011.6
20260903154405 80 112 4.0 13.0 0.00 0.00 0.00 66 1011.6
20260903153405 80 104 7.0 12.0 0.00 0.00 0.00 67 1011.6
20260903152905 80 108 9.0 16.0 0.00 0.00 0.00 67 1011.4
20260903152404 94 104 10.0 16.0 0.00 0.00 0.00 37 1011.4
20260903151404 94 120 6.0 13.0 0.00 0.00 0.00 37 1011.5
20260903150905 94 104 7.0 12.0 0.00 0.00 0.00 37 1011.5
20260903150404 94 106 7.0 14.0 0.00 0.00 0.00 37 1011.6
20260903145904 94 74 7.0 13.0 0.00 0.00 0.00 37 1011.7
20260903145404 94 110 7.0 13.0 0.00 0.00 0.00 37 1011.6
20260903144904 94 103 7.0 13.0 0.00 0.00 0.00 37 1011.6
20260903144404 94 100 8.0 14.0 0.00 0.00 0.00 37 1011.6
20260903143405 94 102 9.0 15.0 0.00 0.00 0.00 37 1011.5
20260903142905 94 108 7.0 13.0 0.00 0.00 0.00 37 1011.5
20260903142405 94 95 8.0 15.0 0.00 0.00 0.00 37 1011.5
20260903141904 94 108 8.0 12.0 0.00 0.00 0.00 37 1011.6
20260903141404 94 101 6.0 12.0 0.00 0.00 0.00 37 1011.6
20260903140904 94 106 6.0 14.0 0.00 0.00 0.00 37 1011.6
20260903140405 94 121 7.0 14.0 0.00 0.00 0.00 37 1011.7
20260903135905 94 98 6.0 13.0 0.00 0.00 0.00 37 1011.7
20260903135404 94 122 6.0 12.0 0.00 0.00 0.00 37 1011.6
20260903134904 94 108 6.0 14.0 0.00 0.00 0.00 37 1011.5
20260903133904 94 102 7.0 13.0 0.00 0.00 0.00 37 1011.4
20260903132904 94 108 6.0 12.0 0.00 0.00 0.00 37 1011.4
20260903131404 94 68 4.0 9.0 0.00 0.00 0.00 37 1011.7
20260903130904 94 0 5.0 12.0 0.00 0.00 0.00 37 1011.6
20260903130404 94 78 3.0 8.0 0.00 0.00 0.00 37 1011.6
20260903125904 94 0 3.0 8.0 0.00 0.00 0.00 37 1011.5
20260903125404 94 0 5.0 8.0 0.00 0.00 0.00 37 1011.3
20260903124904 94 0 2.0 9.0 0.00 0.00 0.00 37 1011.2
20260903124404 94 0 3.0 9.0 0.00 0.00 0.00 37 1011.1
20260903123904 94 0 5.0 12.0 0.00 0.00 0.00 37 1011.1
20260903123405 94 0 4.0 8.0 0.00 0.00 0.00 37 1011.1
20260903122905 94 0 3.0 6.0 0.00 0.00 0.00 37 1011.2
20260903121405 94 84 3.0 9.0 0.00 0.00 0.00 37 1011.1
20260903120905 94 83 5.0 10.0 0.00 0.00 0.00 37 1011.0
20260903120405 94 92 4.0 13.0 0.00 0.00 0.00 37 1011.0
20260903115904 94 96 5.0 12.0 0.00 0.00 0.00 37 1011.1
20260903115404 94 94 5.0 10.0 0.00 0.00 0.00 37 1011.0
20260903114904 94 95 4.0 8.0 0.00 0.00 0.00 37 1011.1
20260903114404 94 93 5.0 10.0 0.00 0.00 0.00 37 1010.9
20260903113904 94 110 6.0 10.0 0.00 0.00 0.00 37 1010.8
20260903113405 94 100 3.0 9.0 0.00 0.00 0.00 37 1010.7
20260903112405 94 110 6.0 9.0 0.00 0.00 0.00 37 1010.8
20260903111905 94 111 4.0 12.0 0.00 0.00 0.00 37 1010.8
20260903111404 94 107 5.0 9.0 0.00 0.00 0.00 37 1010.7
20260903110904 94 121 5.0 10.0 0.00 0.00 0.00 37 1010.8
20260903105905 94 105 2.0 7.0 0.00 0.00 0.00 37 1010.8
20260903105404 94 91 3.0 8.0 0.00 0.00 0.00 37 1010.7
20260903104905 94 94 3.0 7.0 0.00 0.00 0.00 37 1010.7
20260903104404 94 87 3.0 7.0 0.00 0.00 0.00 37 1010.6
20260903103904 94 105 2.0 7.0 0.00 0.00 0.00 37 1010.5
20260903103405 94 98 3.0 6.0 0.00 0.00 0.00 37 1010.5
20260903102405 94 79 2.0 5.0 0.00 0.00 0.00 37 1010.6
20260903101904 94 72 2.0 5.0 0.00 0.00 0.00 37 1010.5
20260903101404 94 58 0.0 3.0 0.00 0.00 0.00 37 1010.5
20260903100905 94 3 3.0 6.0 0.00 0.00 0.00 37 1010.5
20260903095904 94 0 3.0 6.0 0.00 0.00 0.00 37 1010.5